Weather in Tesha

Russia / Nizhny Novgorod Oblast'     55°30′56″N   42°49′03″E
temp.,
°C
wind,
m/s
gust,
m/s
humid.,
%
clouds,
%
prec.,
mm/h
press.,
hPa
HPBL,
m
22 april, thu
thu2200:00+4ssw3990100 0.0 1015773
03:00+5ssw3888100 0.0 1015424
06:00+5ssw3891100 0.0 1017813
09:00+6ssw368898 0.1 1018565
12:00+8sw4668100 0.1 10181236
15:00+11sw475799 0.1 10181753
18:00+10s386723 0.0 1019552
21:00+6s310845 0.0 1020198
23 april, fri
fri2300:00+5sse310836 0.0 1020188
03:00+4sse38885 0.0 1020144
06:00+6sse3118113 0.0 1020264
09:00+12s496376 0.1 1020673
12:00+15ssw575182 0.7 10191843
15:00+14s485776 1.3 1018871
18:00+13s496025 0.6 1017467
21:00+8se39835 0.6 1017175
24 april, sat
sat2400:00+7se278411 0.0 1015138
03:00+6se39925 0.0 1013175
06:00+7se412875 0.0 1011389
09:00+12sse6106317 0.0 10091229
12:00+13sse486677 0.7 10061370
15:00+5wsw4989100 2.4 1007531
18:00+4wnw3993100 1.1 1007656
21:00+5w2790100 1.3 1007622
25 april, sun
sun2500:00+4wsw379024 0.1 1007312
03:00+1wsw28976 0.1 1007222
06:00+2wsw39945 0.0 1008283
09:00+6w476610 0.0 1009848
12:00+8wsw5849100 0.5 10102128
15:00+9wsw6945100 0.8 10112189
18:00+7wsw59527 0.6 10111697
21:00+3sw4116687 0.6 1013424
26 april, mon
mon2600:00+2ssw411792 0.0 1014339
03:000ssw28885 0.0 1014192
06:00+1ssw278548 0.0 1015226
09:00+7sw475610 0.0 10141390
12:00+9sw5839100 0.1 10132457
15:00+9ssw4743100 0.1 10122025
18:00+7s366082 0.1 1011528
21:00+5s3784100 0.3 1010210